TimeMDT,TemperatureF,Dew PointF,Humidity,Sea Level PressureIn,VisibilityMPH,Wind Direction,Wind SpeedMPH,Gust SpeedMPH,PrecipitationIn,Events,Conditions,WindDirDegrees,DateUTC
12:01 AM,33.8,30.2,87,29.56,3.0,East,4.6,-,0.00,Snow,Light Snow,80,2013-04-09 06:01:00
12:16 AM,33.8,30.2,87,29.55,9.0,Calm,Calm,-,0.00,,Overcast,0,2013-04-09 06:16:00
12:53 AM,34.0,30.0,85,29.31,10.0,Calm,Calm,-,0.00,,Overcast,0,2013-04-09 06:53:00
1:20 AM,33.8,30.2,87,29.53,2.5,Calm,Calm,-,0.00,Snow,Light Snow,0,2013-04-09 07:20:00
1:33 AM,32.0,30.2,93,29.55,1.0,South,3.5,-,0.01,Snow,Light Snow,180,2013-04-09 07:33:00
1:42 AM,32.0,30.2,93,29.54,0.5,Calm,Calm,-,0.02,Fog-Snow,Snow,0,2013-04-09 07:42:00
1:50 AM,32.0,30.2,93,29.54,0.5,Calm,Calm,-,0.04,Fog-Snow,Snow,0,2013-04-09 07:50:00
1:53 AM,32.0,30.0,92,29.34,0.5,Calm,Calm,-,0.04,Fog-Snow,Snow,0,2013-04-09 07:53:00
2:10 AM,30.2,30.2,100,29.52,1.5,Calm,Calm,-,0.02,Snow,Light Snow,0,2013-04-09 08:10:00
2:17 AM,32.0,30.2,93,29.52,2.5,Calm,Calm,-,0.02,Snow,Light Snow,0,2013-04-09 08:17:00
2:21 AM,30.2,30.2,100,29.52,3.0,Variable,3.5,-,0.03,Snow,Light Snow,0,2013-04-09 08:21:00
2:53 AM,32.0,30.0,92,29.30,10.0,Variable,3.5,-,0.03,,Mostly Cloudy,0,2013-04-09 08:53:00
3:14 AM,30.2,28.4,93,29.48,10.0,Variable,3.5,-,N/A,,Mostly Cloudy,0,2013-04-09 09:14:00
3:29 AM,30.2,28.4,93,29.48,10.0,Calm,Calm,-,N/A,,Overcast,0,2013-04-09 09:29:00
3:53 AM,32.0,30.0,92,29.29,10.0,East,3.5,-,N/A,,Overcast,90,2013-04-09 09:53:00
4:29 AM,32.0,30.2,93,29.47,10.0,Calm,Calm,-,N/A,,Overcast,0,2013-04-09 10:29:00
4:53 AM,32.0,30.0,92,29.29,10.0,WSW,3.5,-,N/A,,Overcast,240,2013-04-09 10:53:00
5:24 AM,32.0,30.2,93,29.48,5.0,Calm,Calm,-,0.00,Snow,Light Snow,0,2013-04-09 11:24:00
5:51 AM,32.0,30.2,93,29.49,9.0,SSW,3.5,-,0.00,,Overcast,200,2013-04-09 11:51:00
5:53 AM,32.0,30.9,96,29.32,10.0,Calm,Calm,-,0.00,,Overcast,0,2013-04-09 11:53:00
6:22 AM,32.0,30.2,93,29.50,5.0,Calm,Calm,-,0.00,Snow,Light Snow,0,2013-04-09 12:22:00
7:09 AM,32.0,28.4,87,29.51,10.0,WSW,6.9,-,0.00,,Overcast,250,2013-04-09 13:09:00
7:48 AM,32.0,28.4,87,29.53,10.0,WSW,5.8,-,0.00,,Overcast,240,2013-04-09 13:48:00
7:53 AM,32.0,28.0,85,29.44,10.0,West,6.9,-,0.00,,Overcast,260,2013-04-09 13:53:00
8:53 AM,33.1,28.9,85,29.47,10.0,WSW,6.9,-,N/A,,Overcast,240,2013-04-09 14:53:00
9:48 AM,33.8,30.2,87,29.57,2.0,WSW,10.4,18.4,0.00,Snow,Light Snow,240,2013-04-09 15:48:00
9:53 AM,35.1,30.0,82,29.48,5.0,West,10.4,-,0.00,Snow,Light Snow,260,2013-04-09 15:53:00
10:18 AM,35.6,30.2,81,29.58,2.5,WSW,11.5,20.7,0.00,Snow,Light Snow,250,2013-04-09 16:18:00
10:26 AM,35.6,32.0,87,29.58,9.0,WSW,13.8,-,0.00,,Mostly Cloudy,240,2013-04-09 16:26:00
10:53 AM,37.0,30.9,79,29.49,10.0,West,12.7,-,0.00,,Mostly Cloudy,260,2013-04-09 16:53:00
11:23 AM,37.4,30.2,75,29.60,10.0,WSW,11.5,-,N/A,,Mostly Cloudy,240,2013-04-09 17:23:00
11:34 AM,37.4,32.0,81,29.61,10.0,SW,10.4,19.6,N/A,,Mostly Cloudy,230,2013-04-09 17:34:00
11:53 AM,37.0,30.9,79,29.52,8.0,WSW,10.4,20.7,0.00,,Overcast,240,2013-04-09 17:53:00
12:33 PM,39.2,28.4,65,29.62,10.0,West,12.7,-,N/A,,Overcast,260,2013-04-09 18:33:00
12:53 PM,39.9,28.0,63,29.52,10.0,WSW,13.8,-,N/A,,Overcast,240,2013-04-09 18:53:00
1:02 PM,39.2,28.4,65,29.63,10.0,WSW,11.5,-,N/A,,Overcast,240,2013-04-09 19:02:00
1:14 PM,37.4,30.2,75,29.63,7.0,SW,11.5,21.9,0.00,Snow,Light Snow,230,2013-04-09 19:14:00
1:37 PM,35.6,30.2,81,29.64,7.0,West,9.2,-,0.01,Snow,Light Snow,270,2013-04-09 19:37:00
1:50 PM,35.6,32.0,87,29.64,4.0,WSW,10.4,-,0.01,Snow,Light Snow,250,2013-04-09 19:50:00
1:53 PM,37.0,32.0,82,29.55,5.0,WSW,10.4,-,0.01,Snow,Light Snow,250,2013-04-09 19:53:00
2:00 PM,37.4,30.2,75,29.65,4.0,West,16.1,20.7,0.00,Snow,Light Snow,260,2013-04-09 20:00:00
2:07 PM,35.6,30.2,81,29.65,4.0,WSW,11.5,21.9,0.00,Snow,Light Snow,240,2013-04-09 20:07:00
2:19 PM,39.2,30.2,70,29.65,10.0,West,11.5,-,0.00,,Overcast,260,2013-04-09 20:19:00
2:48 PM,35.6,30.2,81,29.67,7.0,West,16.1,-,0.00,Rain,Light Rain,280,2013-04-09 20:48:00
2:53 PM,37.0,32.0,82,29.59,9.0,West,12.7,-,0.00,,Overcast,280,2013-04-09 20:53:00
3:53 PM,37.0,30.9,79,29.62,8.0,West,13.8,20.7,0.00,,Overcast,280,2013-04-09 21:53:00
3:56 PM,35.6,30.2,81,29.71,2.5,WNW,12.7,20.7,0.00,Snow,Light Snow,300,2013-04-09 21:56:00
4:03 PM,33.8,30.2,87,29.71,0.5,West,12.7,-,0.01,Fog-Snow,Snow,280,2013-04-09 22:03:00
4:17 PM,32.0,30.2,93,29.71,0.5,WSW,3.5,-,0.03,Fog-Snow,Snow,250,2013-04-09 22:17:00
4:53 PM,32.0,30.9,96,29.67,0.5,NW,11.5,18.4,0.10,Fog-Snow,Snow,320,2013-04-09 22:53:00
5:05 PM,32.0,30.2,93,29.74,0.8,NW,10.4,-,0.01,Snow,Light Snow,310,2013-04-09 23:05:00
5:19 PM,33.8,32.0,93,29.74,2.0,Calm,Calm,-,0.02,Snow,Light Snow,0,2013-04-09 23:19:00
5:22 PM,33.8,32.0,93,29.74,5.0,Calm,Calm,-,0.02,Snow,Light Snow,0,2013-04-09 23:22:00
5:30 PM,33.8,30.2,87,29.75,2.5,Calm,Calm,-,0.02,Snow,Light Snow,0,2013-04-09 23:30:00
5:46 PM,33.8,30.2,87,29.75,5.0,Calm,Calm,-,0.02,Snow,Light Snow,0,2013-04-09 23:46:00
5:53 PM,34.0,32.0,92,29.69,8.0,Calm,Calm,-,0.02,Snow,Light Snow,0,2013-04-09 23:53:00
6:53 PM,36.0,30.9,82,29.70,10.0,WNW,4.6,-,0.00,,Scattered Clouds,290,2013-04-10 00:53:00
7:53 PM,36.0,30.9,82,29.72,10.0,Calm,Calm,-,N/A,,Partly Cloudy,0,2013-04-10 01:53:00
8:53 PM,35.1,30.9,85,29.75,10.0,North,6.9,-,N/A,,Mostly Cloudy,10,2013-04-10 02:53:00
9:53 PM,34.0,30.0,85,29.79,10.0,North,3.5,-,N/A,,Overcast,350,2013-04-10 03:53:00
10:53 PM,34.0,27.0,75,29.80,10.0,North,5.8,-,N/A,,Overcast,350,2013-04-10 04:53:00
11:53 PM,33.1,27.0,78,29.81,10.0,North,4.6,-,N/A,,Overcast,350,2013-04-10 05:53:00